• In Czech Republic
  • List of Countries
  • For 7 days
  • Water Temperature
  • Satellite Maps
  • Weather Map
  • Weather Widgets
  • user-avatar
    Login

    Hourly Weather Saint John's

    Today, 22 June, Friday

    Time Temperature Precipitation Wind Pressure Humidity
    00:00 +8°C° 0.2 mm 6 mps 751 mmHg 94%
    01:00 +8°C° 0.2 mm 6 mps 751 mmHg 95%
    02:00 +7°C° 0 mm 5 mps 750 mmHg 96%
    03:00 +8°C° 0.1 mm 4 mps 751 mmHg 96%
    04:00 +8°C° 0.1 mm 4 mps 751 mmHg 96%
    05:00 +8°C° 0.1 mm 4 mps 751 mmHg 96%
    06:00 +10°C° 0 mm 4 mps 751 mmHg 93%
    07:00 +10°C° 0 mm 3 mps 751 mmHg 91%
    08:00 +11°C° 0 mm 3 mps 751 mmHg 88%
    09:00 +12°C° 0 mm 3 mps 752 mmHg 83%
    10:00 +13°C° 0 mm 3 mps 752 mmHg 77%
    11:00 +14°C° 0 mm 3 mps 752 mmHg 72%
    12:00 +14°C° 0 mm 3 mps 752 mmHg 70%
    13:00 +14°C° 0 mm 3 mps 753 mmHg 68%
    14:00 +14°C° 0 mm 4 mps 753 mmHg 67%
    15:00 +13°C° 0 mm 3 mps 753 mmHg 71%
    16:00 +12°C° 0 mm 3 mps 753 mmHg 75%
    17:00 +11°C° 0 mm 3 mps 754 mmHg 80%
    18:00 +10°C° 0 mm 2 mps 754 mmHg 83%
    19:00 +9°C° 0 mm 2 mps 754 mmHg 86%
    20:00 +8°C° 0 mm 2 mps 755 mmHg 90%
    21:00 +8°C° 0 mm 2 mps 755 mmHg 91%
    22:00 +8°C° 0 mm 3 mps 755 mmHg 92%
    23:00 +7°C° 0 mm 3 mps 755 mmHg 94%

    Tomorrow, 23 June, Saturday

    Time Temperature Precipitation Wind Pressure Humidity
    00:00 +6°C° 0 mm 4 mps 756 mmHg 91%
    01:00 +6°C° 0 mm 4 mps 756 mmHg 88%
    02:00 +6°C° 0 mm 5 mps 756 mmHg 86%
    03:00 +7°C° 0 mm 5 mps 756 mmHg 82%
    04:00 +7°C° 0 mm 5 mps 756 mmHg 79%
    05:00 +7°C° 0 mm 5 mps 757 mmHg 76%
    06:00 +9°C° 0 mm 6 mps 757 mmHg 71%
    07:00 +10°C° 0 mm 6 mps 757 mmHg 66%
    08:00 +12°C° 0 mm 7 mps 757 mmHg 61%
    09:00 +14°C° 0 mm 7 mps 757 mmHg 59%
    10:00 +15°C° 0 mm 8 mps 757 mmHg 57%
    11:00 +16°C° 0 mm 8 mps 757 mmHg 55%
    12:00 +16°C° 0 mm 8 mps 757 mmHg 55%
    13:00 +16°C° 0 mm 9 mps 756 mmHg 55%
    14:00 +16°C° 0 mm 9 mps 756 mmHg 55%
    15:00 +16°C° 0 mm 9 mps 756 mmHg 57%
    16:00 +15°C° 0 mm 9 mps 756 mmHg 59%
    17:00 +13°C° 0 mm 9 mps 756 mmHg 61%
    18:00 +12°C° 0 mm 9 mps 757 mmHg 62%
    19:00 +11°C° 0 mm 9 mps 757 mmHg 64%
    20:00 +10°C° 0 mm 9 mps 757 mmHg 65%
    21:00 +8°C° 0 mm 9 mps 757 mmHg 64%
    22:00 +8°C° 0 mm 9 mps 757 mmHg 64%
    23:00 +8°C° 0 mm 9 mps 757 mmHg 63%

    Day after tomorrow, 24 June, Sunday

    Time Temperature Precipitation Wind Pressure Humidity
    00:00 +9°C° 0 mm 8 mps 757 mmHg 64%
    01:00 +7°C° 0 mm 8 mps 756 mmHg 64%
    02:00 +8°C° 0 mm 7 mps 756 mmHg 65%
    03:00 +8°C° 0 mm 7 mps 756 mmHg 68%
    04:00 +8°C° 0 mm 7 mps 755 mmHg 72%
    05:00 +8°C° 0 mm 6 mps 755 mmHg 76%
    06:00 +9°C° 0 mm 6 mps 755 mmHg 79%
    07:00 +10°C° 0 mm 6 mps 755 mmHg 83%
    08:00 +10°C° 0 mm 6 mps 754 mmHg 86%
    09:00 +10°C° 0.3 mm 6 mps 754 mmHg 89%
    10:00 +10°C° 0.3 mm 6 mps 754 mmHg 91%
    11:00 +12°C° 0.3 mm 5 mps 754 mmHg 94%
    12:00 +12°C° 0.3 mm 5 mps 753 mmHg 94%
    13:00 +12°C° 0.3 mm 4 mps 752 mmHg 95%
    14:00 +12°C° 0.3 mm 3 mps 751 mmHg 95%
    15:00 +11°C° 1.3 mm 4 mps 751 mmHg 96%
    16:00 +11°C° 1.3 mm 4 mps 750 mmHg 97%
    17:00 +10°C° 1.3 mm 4 mps 750 mmHg 98%
    18:00 +10°C° 0.9 mm 4 mps 750 mmHg 98%
    19:00 +9°C° 0.9 mm 3 mps 750 mmHg 98%
    20:00 +9°C° 0.9 mm 3 mps 749 mmHg 98%
    21:00 +9°C° 0 mm 3 mps 750 mmHg 98%
    22:00 +8°C° 0 mm 4 mps 750 mmHg 98%
    23:00 +7°C° 0 mm 4 mps 750 mmHg 98%

    25 June, Monday

    Time Temperature Precipitation Wind Pressure Humidity
    00:00 +7°C° 0 mm 4 mps 750 mmHg 98%
    01:00 +7°C° 0 mm 4 mps 751 mmHg 98%
    02:00 +7°C° 0 mm 4 mps 751 mmHg 98%
    03:00 +7°C° 0 mm 5 mps 752 mmHg 98%
    04:00 +7°C° 0 mm 5 mps 753 mmHg 97%
    05:00 +7°C° 0 mm 5 mps 753 mmHg 97%
    06:00 +7°C° 0 mm 6 mps 754 mmHg 95%
    07:00 +5°C° 0 mm 6 mps 754 mmHg 93%
    08:00 +5°C° 0 mm 6 mps 755 mmHg 91%
    09:00 +7°C° 0 mm 6 mps 755 mmHg 83%
    10:00 +6°C° 0 mm 7 mps 755 mmHg 76%
    11:00 +8°C° 0 mm 7 mps 756 mmHg 68%
    12:00 +6°C° 0.1 mm 7 mps 756 mmHg 71%
    13:00 +5°C° 0.1 mm 6 mps 756 mmHg 74%
    14:00 +4°C° 0.1 mm 6 mps 756 mmHg 77%
    15:00 +3°C° 0.4 mm 6 mps 756 mmHg 80%
    16:00 +3°C° 0.4 mm 5 mps 756 mmHg 83%
    17:00 +3°C° 0.4 mm 5 mps 756 mmHg 86%
    18:00 +2°C° 0.4 mm 5 mps 756 mmHg 87%
    19:00 +2°C° 0.4 mm 5 mps 756 mmHg 88%
    20:00 +2°C° 0.4 mm 6 mps 756 mmHg 89%
    21:00 +2°C° 0.1 mm 5 mps 756 mmHg 89%
    22:00 +2°C° 0.1 mm 5 mps 756 mmHg 89%
    23:00 +2°C° 0.1 mm 5 mps 756 mmHg 90%

    26 June, Tuesday

    Time Temperature Precipitation Wind Pressure Humidity
    00:00 +2°C° 0.1 mm 6 mps 755 mmHg 89%
    01:00 +2°C° 0.1 mm 6 mps 755 mmHg 89%
    02:00 +2°C° 0.1 mm 6 mps 755 mmHg 89%
    03:00 +2°C° 0.1 mm 6 mps 755 mmHg 89%
    04:00 +2°C° 0.1 mm 6 mps 755 mmHg 89%
    05:00 +2°C° 0.1 mm 6 mps 755 mmHg 89%
    06:00 +2°C° 0 mm 6 mps 755 mmHg 87%
    07:00 +3°C° 0 mm 7 mps 755 mmHg 85%
    08:00 +3°C° 0 mm 7 mps 755 mmHg 84%
    09:00 +3°C° 0 mm 7 mps 754 mmHg 83%
    10:00 +4°C° 0 mm 7 mps 754 mmHg 81%
    11:00 +4°C° 0 mm 7 mps 754 mmHg 80%
    12:00 +4°C° 0.2 mm 7 mps 753 mmHg 84%
    13:00 +4°C° 0.2 mm 8 mps 753 mmHg 88%
    14:00 +2°C° 0.2 mm 8 mps 752 mmHg 91%
    15:00 +2°C° 0.4 mm 8 mps 752 mmHg 93%
    16:00 +4°C° 0.4 mm 8 mps 752 mmHg 94%
    17:00 +4°C° 0.4 mm 8 mps 751 mmHg 95%
    18:00 +4°C° 0.2 mm 8 mps 751 mmHg 95%
    19:00 +3°C° 0.2 mm 9 mps 750 mmHg 96%
    20:00 +3°C° 0.2 mm 9 mps 750 mmHg 96%
    21:00 +5°C° 0.9 mm 9 mps 749 mmHg 97%
    22:00 +5°C° 0.9 mm 8 mps 748 mmHg 97%
    23:00 +5°C° 0.9 mm 8 mps 747 mmHg 98%

    27 June, Wednesday

    Time Temperature Precipitation Wind Pressure Humidity
    00:00 +5°C° 0.8 mm 6 mps 747 mmHg 98%
    01:00 +7°C° 0.8 mm 5 mps 746 mmHg 98%
    02:00 +7°C° 0.8 mm 4 mps 745 mmHg 98%
    03:00 +7°C° 0 mm 4 mps 745 mmHg 98%
    04:00 +8°C° 0 mm 3 mps 744 mmHg 98%
    05:00 +8°C° 0 mm 3 mps 744 mmHg 98%
    06:00 +8°C° 0.1 mm 3 mps 744 mmHg 98%
    07:00 +9°C° 0.1 mm 3 mps 743 mmHg 97%
    08:00 +9°C° 0.1 mm 3 mps 743 mmHg 97%
    09:00 +7°C° 0.3 mm 4 mps 744 mmHg 96%
    10:00 +7°C° 0.3 mm 5 mps 744 mmHg 95%
    11:00 +7°C° 0.3 mm 6 mps 744 mmHg 94%
    12:00 +8°C° 0 mm 6 mps 745 mmHg 89%
    13:00 +9°C° 0 mm 7 mps 746 mmHg 85%
    14:00 +10°C° 0 mm 7 mps 747 mmHg 80%
    15:00 +11°C° 0 mm 7 mps 748 mmHg 75%
    16:00 +14°C° 0 mm 6 mps 749 mmHg 70%
    17:00 +15°C° 0 mm 6 mps 750 mmHg 65%
    18:00 +13°C° 0 mm 6 mps 750 mmHg 68%
    19:00 +11°C° 0 mm 7 mps 751 mmHg 71%
    20:00 +9°C° 0 mm 8 mps 752 mmHg 74%
    21:00 +9°C° 0 mm 8 mps 752 mmHg 77%
    22:00 +9°C° 0 mm 8 mps 752 mmHg 81%
    23:00 +8°C° 0 mm 7 mps 753 mmHg 85%
    Show more